[[{"header":{"parameterUnit":"m.s-1","parameterCategory":1,"la1":30.2991,"la2":30.254,"lo1":-89.0895,"lo2":-89.0444,"dy":0.0017,"dx":0.0017,"nx":28,"ny":28,"refTime":"2024-10-19T09:00:00:Z","depth":0,"parameterNumber":2,"parameterNumberName":"U-component_of_WINDS"},"data":[0,0,0,0,0,0,0,0,0,0,0,0,0,0,0,0,0,0,0,0,0,0,0,0,0,0,0,0,0,0,0,0,0,0,0,0,0,0,0,0,0,0,0,0,0,0,0,0,0,0,0,0,0,0,0,0,0,0,-2.7717,-2.7719,0,-2.7881,-2.7883,-2.7884,-2.7859,-2.7857,-2.7854,-2.7851,-2.8021,-2.8028,-2.8035,0,0,0,0,0,0,0,0,0,0,0,0,0,-2.7385,-2.7391,-2.7717,-2.7719,-2.7721,-2.788,-2.7883,-2.7885,-2.786,-2.7857,-2.7853,-2.785,-2.8019,-2.8027,-2.8036,0,0,0,0,0,0,0,0,0,0,0,0,0,-2.7537,-2.7393,-2.7717,-2.7728,-2.773,-2.788,-2.7883,-2.7886,-2.7861,-2.7857,-2.7852,-2.7848,-2.8016,-2.8026,-2.8037,-2.8186,0,0,-2.807,-2.8074,0,0,0,0,0,0,0,0,-2.7528,-2.7549,-2.7724,-2.7727,-2.7731,-2.7845,-2.7828,-2.7987,-2.7862,-2.7811,-2.7851,-2.7846,-2.7966,-2.7981,-2.8021,-2.8194,-2.8202,-2.8071,-2.8077,-2.8082,-2.8085,0,0,0,0,0,0,0,-2.7518,-2.7542,-2.7782,-2.7727,-2.7731,-2.7725,-2.7742,-2.7858,-2.791,-2.7815,-2.7814,-2.7834,-2.7967,-2.801,-2.8024,-2.8204,-2.807,-2.808,-2.8086,-2.809,-2.851,-2.8515,0,0,0,0,0,0,-2.7504,-2.7533,-2.7777,-2.7787,-2.7617,-2.7735,-2.7754,-2.7813,-2.7909,-2.792,-2.7837,-2.7832,-2.7994,-2.8012,-2.803,-2.8214,-2.8082,-2.8092,-2.8098,-2.8506,-2.8511,-2.8517,0,0,0,0,0,0,-2.7497,-2.7526,-2.777,-2.766,-2.769,-2.7745,-2.7811,-2.7818,-2.7862,-2.7925,-2.7935,-2.7872,-2.7992,-2.8015,-2.8148,-2.8219,-2.8096,-2.8106,-2.85,-2.8507,-2.8514,-2.8581,0,0,0,0,0,0,-2.7487,-2.7523,-2.7581,-2.7661,-2.7696,-2.7885,-2.7816,-2.7824,-2.788,-2.7875,-2.796,-2.797,-2.799,-2.8132,-2.8159,-2.8232,-2.8114,-2.8494,-2.8503,-2.8512,-2.8573,-2.8589,-2.8604,0,0,0,0,0,-2.7476,-2.7593,-2.7584,-2.7613,-2.7769,-2.7889,-2.7909,-2.7929,-2.7885,-2.7944,-2.7985,-2.7968,-2.8206,-2.8146,-2.8176,-2.8253,-2.849,-2.8501,-2.8511,-2.8566,-2.8586,-2.8603,0,0,0,0,0,0,-2.7521,-2.7604,-2.7594,-2.7741,-2.7808,-2.7884,-2.7959,-2.795,-2.8031,-2.8023,-2.8044,-2.8064,-2.8199,-2.8239,-2.817,-2.8403,-2.8342,-2.8359,-2.8374,-2.8394,-2.8409,-2.8398,-2.8123,0,0,0,0,0,-2.7547,-2.7637,-2.7705,-2.7828,-2.7862,-2.7905,-2.7958,-2.7967,-2.8038,-2.8066,-2.8117,-2.8186,-2.8277,-2.8337,-2.8424,-2.8577,-2.8596,-2.8644,-2.866,-2.8672,-2.8688,-2.8774,-2.8797,-2.8552,-2.8552,-2.8551,0,0,-2.7604,-2.7661,-2.7716,-2.7839,-2.7892,-2.7986,-2.7929,-2.803,-2.8101,-2.8082,-2.8211,-2.825,-2.8329,-2.8473,-2.8539,-2.8511,-2.876,-2.8686,-2.8695,-2.8705,-2.8788,-2.8811,-2.8832,-2.8559,-2.8558,-2.8556,0,0,-2.7757,-2.7807,-2.7916,-2.797,-2.8051,-2.8078,-2.8104,-2.8182,-2.8207,-2.8336,-2.8325,-2.8408,-2.8563,-2.8621,-2.8671,-2.8843,-2.8832,-2.887,-2.8954,-2.9037,-2.9056,-2.9074,-2.9138,-2.9161,-2.8885,-2.8885,-2.8885,0,-2.7818,-2.7958,-2.7974,-2.8077,-2.8132,-2.8117,-2.8229,-2.828,-2.8385,-2.8424,-2.8389,-2.8585,-2.8637,-2.8795,-2.8837,-2.8876,-2.8909,-2.8863,-2.9052,-2.907,-2.9086,-2.9148,-2.9172,-2.889,-2.8889,-2.8889,-2.8888,0,-2.8031,-2.8128,-2.8206,-2.8308,-2.8371,-2.8478,-2.851,-2.8572,-2.8575,-2.8606,-2.8739,-2.88,-2.89,-2.8937,-2.8941,-2.9097,-2.9077,-2.9047,-2.8986,-2.9114,-2.9173,-2.9196,-2.8896,-2.8895,-2.8893,-2.8892,0,0,-2.822,-2.8327,-2.8356,-2.8403,-2.8489,-2.8566,-2.8671,-2.8768,-2.8822,-2.8894,-2.8985,-2.9116,-2.9089,-2.9145,-2.9155,-2.9228,-2.9364,-2.9189,-2.9191,-2.9222,-2.9542,-2.9567,-2.9594,-2.9354,-2.9359,-2.9362,-2.9537,0,-2.8384,-2.8571,-2.8588,-2.8757,-2.8848,-2.8834,-2.8926,-2.899,-2.9021,-2.9103,-2.9137,-2.9231,-2.9186,-2.9221,-2.9292,-2.9332,-2.9429,-2.9319,-2.9442,-2.9446,-2.9427,-2.9624,-2.9652,-2.9813,-2.9559,-2.9563,-2.9566,0,-2.8601,-2.868,-2.8857,-2.8932,-2.8971,-2.9053,-2.9144,-2.9222,-2.9293,-2.9311,-2.9373,-2.9373,-2.9483,-2.9414,-2.9568,-2.9493,-2.9543,-2.957,-2.9577,-2.9593,-2.9517,-2.965,-2.9865,-2.9891,-2.9601,-2.9599,-2.9596,0,-2.8727,-2.8875,-2.9002,-2.9041,-2.913,-2.9189,-2.9229,-2.9296,-2.9353,-2.9432,-2.947,-2.956,-2.961,-2.968,-2.9705,-2.9652,-2.9858,-2.9791,-2.9878,-2.9878,-2.9926,-2.9923,-3.0157,-2.9951,-2.9951,-2.995,-2.995,0,-2.8911,-2.9021,-2.9059,-2.9138,-2.9261,-2.9277,-2.9399,-2.9436,-2.9495,-2.9581,-2.9573,-2.9654,-2.9679,-2.9764,-2.9783,-2.9909,-2.9931,-2.995,-2.9954,-2.9953,-2.9951,-2.999,-2.9981,-2.9957,-2.9955,-2.9954,-2.9953,0,-2.9074,-2.9103,-2.9241,-2.9312,-2.9333,-2.9421,-2.9483,-2.9559,-2.9587,-2.9696,-2.9722,-2.9767,-2.9867,-2.9897,-3.0017,-3.003,-3.0178,-3.017,-3.0154,-3.0156,-3.0243,-3.0236,-3.0513,-3.0551,-3.0316,-3.0318,-3.032,0,-2.9192,-2.9276,-2.9357,-2.9413,-2.9455,-2.9546,-2.9604,-2.9623,-2.9684,-2.9771,-2.9837,-2.9935,-3.0015,-3.0176,-3.022,-3.0312,-3.0309,-3.0399,-3.0323,-3.032,-3.0315,-3.0312,-3.0322,-3.0416,-3.0418,-3.042,-3.0422,0,-2.9399,-2.9409,-2.9493,-2.9583,-2.9652,-2.9723,-2.9791,-2.9838,-2.9866,-2.9935,-3.0037,-3.0099,-3.0221,-3.032,-3.0413,-3.0454,-3.0445,-3.0444,-3.047,-3.0473,-3.0461,-3.0472,-3.0198,-3.0439,-3.0438,-3.0436,-3.0435,-3.0435,-2.9547,-2.9622,-2.969,-2.9784,-2.9837,-2.9901,-2.9976,-3.0013,-3.0097,-3.0198,-3.0203,-3.0314,-3.0383,-3.0507,-3.0553,-3.0641,-3.0615,-3.0651,-3.0661,-3.0671,-3.068,-3.0443,-3.0657,-3.0656,-3.0656,-3.0656,-3.0655,0,-2.9758,-2.98,-2.9886,-2.9982,-3.0056,-3.0036,-3.011,-3.0174,-3.0271,-3.0336,-3.0414,-3.0531,-3.0626,-3.0677,-3.0772,-3.0832,-3.083,-3.0857,-3.0855,-3.0866,-3.0696,-3.0666,-3.0857,-3.0857,-3.0857,-3.0857,-3.0857,-3.0857,-2.9877,-3.0004,-3.0021,-3.0174,-3.0216,-3.0324,-3.0369,-3.0428,-3.048,-3.0611,-3.0689,-3.072,-3.078,-3.0879,-3.0965,-3.0978,-3.1015,-3.1046,-3.1056,-3.0898,-3.0877,-3.0858,-3.083,-3.1053,-3.1053,-3.1219,-3.122,-3.1222]},{"header":{"parameterUnit":"m.s-1","parameterCategory":1,"la1":30.2991,"la2":30.254,"lo1":-89.0895,"lo2":-89.0444,"dy":0.0017,"dx":0.0017,"nx":28,"ny":28,"refTime":"2024-10-19T09:00:00:Z","depth":0,"parameterNumber":3,"parameterNumberName":"V-component_of_WINDS"},"data":[0,0,0,0,0,0,0,0,0,0,0,0,0,0,0,0,0,0,0,0,0,0,0,0,0,0,0,0,0,0,0,0,0,0,0,0,0,0,0,0,0,0,0,0,0,0,0,0,0,0,0,0,0,0,0,0,0,0,-3.8126,-3.8127,0,-3.8267,-3.8269,-3.8271,-3.8247,-3.8245,-3.8242,-3.824,-3.838,-3.8386,-3.8392,0,0,0,0,0,0,0,0,0,0,0,0,0,-3.7831,-3.7836,-3.8126,-3.8127,-3.8129,-3.8267,-3.8269,-3.8271,-3.8247,-3.8244,-3.8241,-3.8239,-3.8378,-3.8385,-3.8392,0,0,0,0,0,0,0,0,0,0,0,0,0,-3.7964,-3.7838,-3.8125,-3.8134,-3.8136,-3.8267,-3.8269,-3.8271,-3.8248,-3.8244,-3.8241,-3.8237,-3.8376,-3.8384,-3.8393,-3.8522,0,0,-3.8421,-3.8425,0,0,0,0,0,0,0,0,-3.7957,-3.7975,-3.8131,-3.8134,-3.8137,-3.8236,-3.8217,-3.8355,-3.8249,-3.8206,-3.824,-3.8236,-3.8335,-3.8347,-3.8381,-3.8529,-3.8535,-3.8422,-3.8427,-3.8431,-3.8434,0,0,0,0,0,0,0,-3.7947,-3.7969,-3.8181,-3.8133,-3.8137,-3.813,-3.8145,-3.8243,-3.8289,-3.8209,-3.8208,-3.8225,-3.8335,-3.8373,-3.8384,-3.8537,-3.8421,-3.8429,-3.8435,-3.8439,-3.8797,-3.8801,0,0,0,0,0,0,-3.7936,-3.7961,-3.8177,-3.8186,-3.8036,-3.8138,-3.8155,-3.8208,-3.8288,-3.8296,-3.8228,-3.8223,-3.8359,-3.8374,-3.8389,-3.8545,-3.8431,-3.8439,-3.8445,-3.8793,-3.8798,-3.8803,0,0,0,0,0,0,-3.793,-3.7956,-3.8171,-3.8073,-3.81,-3.8147,-3.8207,-3.8212,-3.825,-3.8302,-3.831,-3.8258,-3.8357,-3.8377,-3.849,-3.855,-3.8443,-3.8452,-3.8788,-3.8795,-3.88,-3.8858,0,0,0,0,0,0,-3.7922,-3.7954,-3.8004,-3.8075,-3.8106,-3.8271,-3.821,-3.8218,-3.8266,-3.8261,-3.8332,-3.834,-3.8355,-3.8476,-3.8499,-3.856,-3.8459,-3.8783,-3.8791,-3.8798,-3.8851,-3.8865,-3.8878,0,0,0,0,0,-3.7911,-3.8013,-3.8007,-3.8033,-3.817,-3.8274,-3.8292,-3.8308,-3.8271,-3.8321,-3.8355,-3.8338,-3.854,-3.8488,-3.8513,-3.8578,-3.8779,-3.8789,-3.8798,-3.8845,-3.8862,-3.8877,0,0,0,0,0,0,-3.7946,-3.8023,-3.8016,-3.8144,-3.8203,-3.827,-3.8334,-3.8327,-3.8396,-3.8388,-3.8405,-3.8421,-3.8536,-3.8568,-3.8509,-3.8707,-3.8654,-3.8669,-3.8681,-3.8698,-3.8712,-3.87,-3.8466,0,0,0,0,0,-3.7969,-3.8049,-3.8111,-3.8218,-3.8249,-3.8287,-3.8332,-3.8341,-3.8401,-3.8426,-3.8468,-3.8526,-3.8603,-3.8653,-3.8726,-3.8856,-3.8871,-3.8913,-3.8926,-3.8937,-3.8949,-3.902,-3.9039,-3.8833,-3.8833,-3.8833,0,0,-3.8017,-3.8069,-3.8118,-3.8227,-3.8273,-3.8354,-3.8307,-3.8395,-3.8455,-3.8438,-3.8548,-3.8581,-3.8648,-3.877,-3.8826,-3.88,-3.901,-3.8949,-3.8957,-3.8963,-3.9031,-3.9051,-3.9068,-3.8839,-3.8838,-3.8837,0,0,-3.8145,-3.8193,-3.8287,-3.8335,-3.8407,-3.8432,-3.8455,-3.8524,-3.8545,-3.8656,-3.8646,-3.8717,-3.8849,-3.8896,-3.8938,-3.9086,-3.9072,-3.9109,-3.9178,-3.9247,-3.9263,-3.9278,-3.9329,-3.9348,-3.9121,-3.9122,-3.9122,0,-3.8194,-3.8317,-3.8336,-3.8426,-3.8473,-3.8465,-3.856,-3.8605,-3.8697,-3.8729,-3.8701,-3.8867,-3.8911,-3.9044,-3.908,-3.9114,-3.914,-3.91,-3.926,-3.9275,-3.9288,-3.9338,-3.9357,-3.9125,-3.9125,-3.9125,-3.9124,0,-3.8374,-3.846,-3.8527,-3.8618,-3.8674,-3.8765,-3.8797,-3.8851,-3.8855,-3.8882,-3.8995,-3.9048,-3.9132,-3.9165,-3.9169,-3.9299,-3.9281,-3.9256,-3.9203,-3.9311,-3.9358,-3.9377,-3.9131,-3.913,-3.9128,-3.9127,0,0,-3.8525,-3.8627,-3.8651,-3.8692,-3.8772,-3.8838,-3.8929,-3.9013,-3.9059,-3.9123,-3.9199,-3.9312,-3.929,-3.9337,-3.9346,-3.9407,-3.952,-3.9374,-3.9376,-3.9398,-3.9665,-3.9682,-3.9704,-3.9512,-3.9516,-3.9519,-3.9659,0,-3.8659,-3.8822,-3.8842,-3.8986,-3.9065,-3.9059,-3.9139,-3.9196,-3.9225,-3.9295,-3.9326,-3.9405,-3.9371,-3.9399,-3.9459,-3.9493,-3.9573,-3.9484,-3.9581,-3.9585,-3.9563,-3.9728,-3.9746,-3.9875,-3.9677,-3.9681,-3.9683,0,-3.8837,-3.8908,-3.906,-3.913,-3.9164,-3.9235,-3.9314,-3.9382,-3.9446,-3.9462,-3.9517,-3.9519,-3.9612,-3.9557,-3.9685,-3.9624,-3.9665,-3.9688,-3.9694,-3.9702,-3.9639,-3.9739,-3.9917,-3.9936,-3.9712,-3.971,-3.9708,0,-3.893,-3.9064,-3.9172,-3.9208,-3.9292,-3.9342,-3.9379,-3.944,-3.949,-3.9559,-3.9591,-3.9669,-3.9711,-3.9772,-3.9794,-3.9752,-3.9921,-3.9868,-3.9936,-3.9935,-3.9969,-3.9967,-4.0155,-4.0,-3.9999,-3.9999,-3.9999,0,-3.9076,-3.9169,-3.9215,-3.9282,-3.9386,-3.9409,-3.951,-3.9545,-3.96,-3.9672,-3.9672,-3.974,-3.9767,-3.9838,-3.9857,-3.996,-3.9979,-3.9994,-3.9997,-3.9993,-3.9991,-4.0019,-4.0009,-4.0004,-4.0003,-4.0002,-4.0001,0,-3.9197,-3.9232,-3.9349,-3.9421,-3.9441,-3.9514,-3.9574,-3.9638,-3.9667,-3.9758,-3.9781,-3.9826,-3.991,-3.994,-4.0042,-4.0055,-4.0174,-4.017,-4.0152,-4.0152,-4.0218,-4.0211,-4.0429,-4.0458,-4.0286,-4.0287,-4.0289,0,-3.9287,-3.9358,-3.9438,-3.9488,-3.9527,-3.9606,-3.9658,-3.9683,-3.9736,-3.9816,-3.987,-3.9955,-4.0023,-4.0158,-4.0199,-4.0277,-4.0274,-4.0346,-4.0286,-4.0279,-4.0274,-4.0268,-4.0275,-4.0356,-4.0358,-4.0359,-4.036,0,-3.9442,-3.9456,-3.9531,-3.9613,-3.9674,-3.9739,-3.9801,-3.9842,-3.9876,-3.9936,-4.0023,-4.0077,-4.0183,-4.0266,-4.0346,-4.0383,-4.0377,-4.038,-4.0399,-4.0394,-4.038,-4.0387,-4.0181,-4.0374,-4.0372,-4.0371,-4.0371,-4.037,-3.9549,-3.9612,-3.9679,-3.9762,-3.9813,-3.9872,-3.9935,-3.9974,-4.0048,-4.0136,-4.0147,-4.0241,-4.0304,-4.0412,-4.0453,-4.0525,-4.0505,-4.0534,-4.0541,-4.0547,-4.0551,-4.0371,-4.054,-4.054,-4.054,-4.0539,-4.0539,0,-3.9703,-3.9746,-3.9823,-3.9912,-3.9977,-3.9969,-4.0039,-4.0093,-4.0176,-4.0237,-4.0305,-4.0406,-4.0487,-4.0536,-4.0617,-4.0666,-4.0666,-4.0686,-4.0682,-4.069,-4.0565,-4.0539,-4.0686,-4.0686,-4.0686,-4.0686,-4.0686,-4.0685,-3.979,-3.9897,-3.992,-4.0052,-4.0094,-4.0188,-4.0228,-4.0282,-4.033,-4.0443,-4.0512,-4.0544,-4.0599,-4.0685,-4.0759,-4.0771,-4.08,-4.0823,-4.0833,-4.0714,-4.0699,-4.0685,-4.066,-4.083,-4.083,-4.0951,-4.0953,-4.0953]}]]